Weather History for Missoula, MT

Change the Weather History Date:

Wednesday, January 1, 2014

  Actual Average Record
Temperature  
Mean Temperature 33 °F 24 °F  
Max Temperature 41 °F 31 °F 60 °F (1939)
Min Temperature 25 °F 16 °F -28 °F (1979)
Degree Days  
Heating Degree Days 32 41  
Month to date heating degree days 32 41  
Since 1 July heating degree days 3189 3213  
Cooling Degree Days 0 0  
Month to date cooling degree days 0 0  
Year to date cooling degree days 0 0  
Moisture  
Dew Point 25 °F    
Average Humidity 72    
Maximum Humidity 85    
Minimum Humidity 59    
Precipitation  
Precipitation 0.00 in 0.03 in 0.28 in (1997)
Month to date precipitation 0.00 0.03  
Year to date precipitation 0.00 0.03  
Snow  
Snow 0.00 in - - ()
Month to date snowfall 0.0  
Year to date snowfall 0.0  
Since 1 July snowfall 13.9  
Snow Depth T in    
Sea Level Pressure  
Sea Level Pressure 30.41 in    
Wind  
Wind Speed 3 mph (NNW)    
Max Wind Speed 12 mph    
Max Gust Speed 15 mph    
Visibility 10 miles    
Events      
T = Trace of Precipitation, MM = Missing Value Source: NWS Daily Summary

Daily Weather History Graph

Daily Weather History Graph

Search for Another Location

Airport:

Trip Planner

Search our weather history database for the weather conditions in past years. The results will help you decide how hot, cold, wet, or windy it might be!

Date:

Astronomy

Jan. 01, 2014 Rise Set
Actual Time 8:21 AM MST 4:58 PM MST
Civil Twilight 7:46 AM MST 5:33 PM MST
Nautical Twilight 7:08 AM MST 6:12 PM MST
Astronomical Twilight 6:31 AM MST 6:49 PM MST
Moon 8:11 AM MST (1/1) 5:53 PM MST (1/1)
Length of Visible Light 9h 46m
Length of Day
8h 36m
New Moon, 0% of the Moon is Illuminated
Jan 1
New Moon
Jan 7
First Quarter
Jan 15
Full
Jan 23
Last Quarter
Jan 30
New

Hourly Weather History & Observations

Time (MST) Temp. Windchill Dew Point Humidity Pressure Visibility Wind Dir Wind Speed Gust Speed Precip Events Conditions
12:53 AM 36.0 °F 29.0 °F 28.0 °F 73% 30.30 in 10.0 mi NW 9.2 mph - N/A   Mostly Cloudy
1:53 AM 37.0 °F 30.4 °F 27.0 °F 67% 30.30 in 10.0 mi NW 9.2 mph - N/A   Overcast
2:53 AM 36.0 °F 29.0 °F 26.1 °F 67% 30.33 in 10.0 mi NW 9.2 mph - N/A   Overcast
3:53 AM 35.1 °F 32.2 °F 26.1 °F 70% 30.35 in 10.0 mi NNW 3.5 mph - N/A   Overcast
4:53 AM 35.1 °F 29.3 °F 25.0 °F 67% 30.36 in 10.0 mi North 6.9 mph - N/A   Overcast
5:53 AM 33.1 °F 26.9 °F 25.0 °F 72% 30.38 in 10.0 mi North 6.9 mph - N/A   Mostly Cloudy
6:53 AM 28.9 °F 21.9 °F 24.1 °F 82% 30.41 in 10.0 mi West 6.9 mph - N/A   Mostly Cloudy
7:53 AM 27.0 °F - 23.0 °F 85% 30.44 in 10.0 mi Calm Calm - N/A   Partly Cloudy
8:53 AM 28.9 °F - 24.1 °F 82% 30.45 in 10.0 mi Calm Calm - N/A   Clear
9:53 AM 33.1 °F - 26.1 °F 75% 30.46 in 10.0 mi Calm Calm - N/A   Clear
10:53 AM 33.1 °F - 26.1 °F 75% 30.47 in 10.0 mi Calm Calm - N/A   Clear
11:53 AM 33.1 °F - 27.0 °F 78% 30.46 in 10.0 mi Calm Calm - N/A   Clear
12:53 PM 36.0 °F - 27.0 °F 70% 30.43 in 10.0 mi Calm Calm - N/A   Clear
1:53 PM 37.0 °F - 26.1 °F 65% 30.40 in 10.0 mi Calm Calm - N/A   Clear
2:53 PM 39.0 °F 36.8 °F 27.0 °F 62% 30.39 in 10.0 mi WSW 3.5 mph - N/A   Clear
3:53 PM 39.9 °F - 27.0 °F 60% 30.40 in 10.0 mi Calm Calm - N/A   Clear
4:53 PM 37.0 °F - 25.0 °F 62% 30.41 in 10.0 mi Calm Calm - N/A   Clear
5:53 PM 30.9 °F - 25.0 °F 79% 30.43 in 10.0 mi Calm Calm - N/A   Clear
6:53 PM 30.0 °F 25.2 °F 24.1 °F 79% 30.44 in 10.0 mi NNW 4.6 mph - N/A   Clear
7:53 PM 28.0 °F - 23.0 °F 81% 30.45 in 10.0 mi Calm Calm - N/A   Clear
8:53 PM 28.9 °F 25.2 °F 24.1 °F 82% 30.44 in 10.0 mi East 3.5 mph - N/A   Mostly Cloudy
9:53 PM 30.0 °F 26.5 °F 24.1 °F 79% 30.43 in 10.0 mi East 3.5 mph - N/A   Overcast
10:53 PM 27.0 °F - 23.0 °F 85% 30.44 in 10.0 mi Calm Calm - N/A   Clear
11:53 PM 25.0 °F - 21.9 °F 88% 30.44 in 10.0 mi Calm Calm - N/A   Clear